This demonstration page uses our WeatherBlox Daily Observations layout. Learn more.

Left ArrowRight Arrow

Hourly Observations for October 8, 2021

Temp ( °F °C ) Dew Point ( °F °C ) Humidity (%) Winds ( mph kmh ) Pressure ( in mb ) Visibility ( mi km ) Precip ( " mm )
12:56 am 00:56 Clear 55 12.8 51 10.6 87 87 E 5 7 29.93 1014 10 16 N/A
1:56 am 01:56 Clear 53 11.7 51 10.6 93 93 ESE 5 7 29.91 1013 10 16 N/A
2:56 am 02:56 Clear 54 12.2 51 10.6 90 90 undefined N/A 29.90 1013 10 16 N/A
3:56 am 03:56 Clear 54 12.2 51 10.6 90 90 N N/A 29.90 1013 10 16 N/A
4:56 am 04:56 Clear 51 10.6 49 9.4 92 92 N N/A 29.89 1012 10 16 N/A
5:56 am 05:56 Clear 52 11.1 50 10 93 93 NW 3 6 29.91 1013 10 16 N/A
6:56 am 06:56 Clear 50 10 48 8.9 93 93 N N/A 29.92 1013 10 16 N/A
7:56 am 07:56 Sunny 49 9.4 47 8.3 93 93 NW 6 9 29.95 1014 8 13 N/A
8:56 am 08:56 Sunny 53 11.7 51 10.6 93 93 N N/A 29.95 1014 9 14 N/A
9:56 am 09:56 Sunny 60 15.6 55 12.8 84 84 NNW 3 6 29.96 1015 10 16 N/A
10:56 am 10:56 Sunny 69 20.6 57 13.9 66 66 NNE 5 7 29.94 1014 10 16 N/A
11:56 am 11:56 Sunny 78 25.6 55 12.8 45 45 NE 10 17 29.93 1013 10 16 N/A
12:56 pm 12:56 Sunny 80 26.7 55 12.8 42 42 ENE 8 13 29.91 1013 10 16 N/A
1:56 pm 13:56 Sunny 82 27.8 54 12.2 38 38 E 5 7 29.89 1012 10 16 N/A
2:56 pm 14:56 Sunny 83 28.3 55 12.8 38 38 VRB 6 9 29.86 1011 10 16 N/A
3:56 pm 15:56 Sunny 84 28.9 53 11.7 34 34 S 6 9 29.85 1011 10 16 N/A
4:56 pm 16:56 Sunny 82 27.8 54 12.2 38 38 SE 7 11 29.84 1011 10 16 N/A
5:56 pm 17:56 Sunny 83 28.3 53 11.7 36 36 ESE 7 11 29.83 1010 10 16 N/A
6:56 pm 18:56 Sunny 77 25 54 12.2 45 45 E 6 9 29.84 1011 10 16 N/A
7:56 pm 19:56 Clear 71 21.7 55 12.8 57 57 SE 7 11 29.87 1012 10 16 N/A
8:56 pm 20:56 Clear 68 20 55 12.8 63 63 E 3 6 29.86 1011 10 16 N/A
9:56 pm 21:56 Clear 65 18.3 55 12.8 70 70 N N/A 29.85 1011 10 16 N/A
10:56 pm 22:56 Clear 64 17.8 55 12.8 73 73 ESE 5 7 29.84 1011 10 16 N/A
11:56 pm 23:56 Clear 62 16.7 55 12.8 78 78 N N/A 29.83 1010 10 16 N/A

Powered by AerisWeather